Temperature
4 4 3 3 2 2 1 0 -1 -1 -0 0 -0 -0 -0 -0 0 1 0 -0 -0 -0 -1 -1 -1 -1 -1 -1 -1 -1 -1 -1 -1 -1 -0 -0 0 1
4 3 3 2 2 2 1 0 -1 -2 -2 -1 -1 -1 -1 -1 -1 -1 -1 -1 -1 -1 -1 -1 -2 -2 -2 -2 -2 -2 -2 -2 -2 -1 -1 -1 -0 0
3 3 2 2 1 1 0 -0 -1 -2 -2 -2 -2 -2 -2 -2 -2 -2 -2 -2 -3 -3 -2 -3 -3 -3 -3 -3 -3 -3 -2 -2 -2 -2 -1 -1 -1 -0
3 2 2 1 1 0 -0 -1 -1 -2 -3 -3 -3 -3 -3 -3 -3 -3 -3 -4 -4 -3 -3 -3 -3 -3 -3 -3 -3 -3 -3 -3 -3 -2 -2 -2 -1 -1
2 2 1 1 0 -0 -1 -1 -2 -2 -3 -4 -4 -4 -4 -4 -4 -4 -4 -4 -4 -4 -4 -4 -4 -4 -4 -4 -4 -4 -4 -3 -3 -3 -3 -2 -2 -2
2 1 1 0 -0 -1 -1 -2 -2 -3 -4 -4 -4 -5 -5 -5 -5 -5 -5 -5 -5 -5 -5 -4 -4 -4 -4 -4 -4 -4 -4 -4 -4 -3 -3 -3 -3 -2
1 1 0 0 -0 -1 -2 -2 -3 -4 -4 -4 -5 -5 -5 -5 -5 -5 -5 -5 -5 -5 -5 -5 -5 -5 -5 -5 -4 -4 -4 -4 -4 -4 -4 -3 -3 -3
0 0 -0 -0 -1 -1 -2 -3 -3 -4 -4 -5 -5 -5 -5 -5 -5 -5 -6 -6 -5 -5 -5 -5 -5 -5 -5 -5 -5 -5 -4 -4 -4 -4 -4 -3 -3 -3
-0 -1 -1 -1 -2 -2 -2 -3 -4 -4 -5 -5 -5 -5 -5 -5 -6 -6 -6 -6 -6 -6 -6 -6 -5 -5 -5 -5 -5 -5 -5 -5 -4 -4 -4 -4 -3 -3
-1 -1 -2 -2 -2 -3 -3 -4 -4 -5 -5 -5 -5 -5 -6 -6 -6 -6 -6 -6 -6 -6 -6 -6 -6 -5 -5 -5 -5 -5 -5 -4 -4 -4 -4 -4 -4 -3
-1 -2 -2 -2 -3 -4 -4 -5 -5 -5 -5 -5 -5 -5 -5 -5 -6 -6 -6 -6 -6 -6 -6 -6 -6 -6 -6 -6 -5 -5 -5 -5 -5 -4 -4 -4 -4 -4
-2 -2 -3 -3 -3 -4 -5 -5 -5 -5 -5 -5 -6 -6 -6 -6 -6 -6 -7 -7 -7 -7 -6 -6 -6 -6 -6 -6 -6 -6 -5 -5 -5 -5 -5 -4 -4 -4
-3 -3 -4 -4 -4 -5 -5 -5 -5 -5 -6 -6 -6 -6 -6 -7 -7 -7 -7 -7 -8 -7 -7 -7 -7 -7 -7 -7 -7 -6 -6 -6 -6 -5 -5 -5 -5 -5
-4 -4 -4 -5 -5 -5 -5 -5 -6 -6 -6 -6 -7 -7 -7 -7 -7 -7 -7 -8 -8 -8 -8 -8 -8 -8 -8 -7 -7 -7 -6 -6 -6 -6 -6 -5 -5 -5
-4 -5 -5 -5 -6 -6 -6 -6 -6 -6 -7 -7 -7 -7 -8 -8 -8 -8 -8 -8 -8 -8 -8 -8 -8 -8 -8 -8 -7 -7 -7 -6 -6 -6 -6 -6 -6 -5
-5 -5 -5 -6 -6 -6 -6 -7 -7 -7 -7 -8 -8 -8 -8 -8 -8 -8 -8 -8 -8 -8 -8 -8 -8 -8 -8 -8 -7 -7 -7 -7 -6 -6 -6 -6 -6 -6
-6 -6 -6 -6 -6 -6 -7 -7 -7 -8 -8 -8 -9 -9 -9 -9 -9 -9 -9 -9 -9 -8 -8 -8 -8 -8 -8 -8 -8 -7 -7 -7 -7 -7 -6 -6 -6 -6
-6 -7 -7 -7 -7 -7 -8 -8 -8 -8 -9 -9 -9 -9 -9 -9 -9 -9 -9 -9 -9 -9 -8 -8 -8 -8 -8 -7 -7 -7 -7 -7 -7 -7 -7 -7 -6 -6
-7 -7 -7 -8 -8 -8 -8 -9 -9 -9 -9 -9 -9 -10 -10 -10 -10 -10 -9 -9 -9 -9 -9 -9 -9 -8 -8 -8 -7 -7 -7 -7 -7 -7 -7 -7 -7 -7
-8 -8 -8 -8 -9 -9 -9 -9 -9 -10 -10 -10 -10 -10 -10 -10 -10 -10 -10 -10 -9 -9 -9 -9 -9 -9 -9 -8 -8 -8 -7 -7 -7 -7 -7 -7 -7 -7
-9 -9 -9 -9 -9 -10 -10 -10 -10 -10 -10 -10 -10 -10 -11 -10 -10 -10 -10 -10 -10 -9 -9 -9 -9 -9 -9 -9 -8 -8 -8 -8 -8 -8 -8 -8 -7 -7
-9 -10 -10 -10 -10 -10 -10 -11 -11 -11 -11 -11 -11 -11 -11 -11 -11 -10 -10 -10 -10 -10 -10 -9 -9 -9 -9 -9 -9 -8 -8 -8 -8 -8 -8 -8 -8 -8
-10 -10 -10 -11 -11 -11 -11 -11 -11 -11 -11 -11 -11 -11 -11 -11 -11 -11 -11 -10 -10 -10 -10 -10 -10 -9 -9 -9 -9 -9 -8 -8 -8 -8 -8 -8 -8 -7
Wind_Speed
6 7 6 6 6 7 7 8 8 9 12 11 8 8 11 14 17 19 19 21 23 24 25 25 24 25 25 26 26 27 27 27 27 28 28 29 29 29
5 7 8 7 7 7 8 8 9 11 12 10 12 14 15 15 19 20 20 23 24 24 24 24 24 25 26 26 27 27 27 27 27 27 28 29 29 28
7 8 9 9 8 8 8 9 10 11 15 15 13 14 16 17 16 18 19 20 19 22 24 25 25 26 26 26 26 26 26 26 26 26 27 27 27 27
9 9 10 9 11 10 9 11 11 12 14 18 15 14 16 16 17 17 17 18 19 22 24 26 26 27 26 26 26 26 25 25 25 25 26 26 26 26
10 11 11 11 12 11 12 12 11 12 13 14 16 14 14 14 16 16 17 15 17 19 22 23 25 26 26 27 26 26 25 24 24 24 24 24 25 25
11 12 12 12 13 13 12 13 13 13 13 14 15 14 14 15 14 14 15 14 14 15 19 21 23 25 25 25 24 24 24 23 23 23 23 23 23 23
12 13 13 14 16 15 13 13 13 12 13 13 14 14 14 13 13 13 15 15 15 14 15 14 14 14 15 19 21 21 22 22 22 23 23 23 23 23
13 14 14 15 17 19 21 21 19 17 15 15 14 15 17 16 15 14 15 16 16 12 13 14 13 15 14 15 19 22 23 23 23 23 23 23 22 22
14 14 12 13 16 14 17 19 20 22 22 19 18 19 19 17 17 18 16 17 17 14 14 15 14 15 14 16 22 22 23 23 22 22 22 22 21 21
15 15 15 16 14 14 14 15 17 17 18 16 15 18 18 18 17 17 18 17 17 14 13 14 14 14 13 13 19 20 20 20 20 20 20 19 19 19
14 15 15 16 18 19 17 17 18 17 18 22 24 24 26 26 21 14 13 14 15 13 11 11 13 13 13 13 12 14 14 15 16 15 15 15 15 14
13 13 16 18 19 20 17 16 17 17 16 16 17 18 18 18 20 15 12 13 13 12 10 9 11 10 8 8 8 8 9 11 12 12 12 12 12 9
12 12 12 17 20 21 21 17 19 19 17 15 13 13 12 11 11 10 9 10 12 12 10 8 9 9 9 9 10 10 9 8 8 7 8 9 9 8
13 13 13 19 21 23 20 20 23 20 13 12 12 12 11 11 10 10 9 10 11 13 13 11 9 10 11 12 10 8 8 7 7 7 6 6 6 7
14 18 21 24 23 19 20 21 18 13 12 12 12 12 11 10 10 9 10 10 11 12 13 12 11 10 10 11 10 9 8 6 6 6 5 4 4 4
14 17 21 23 19 19 17 14 11 11 11 11 12 11 10 10 10 9 9 9 9 9 8 10 10 10 10 10 9 9 8 5 5 5 5 4 4 4
15 14 13 13 12 11 11 11 10 10 10 10 10 10 10 10 10 9 8 8 9 10 8 6 6 8 10 9 9 9 7 6 5 4 4 5 4 4
19 14 14 13 12 12 11 11 10 10 10 10 10 10 10 10 9 9 8 9 9 9 9 7 6 6 6 6 8 8 6 5 4 4 4 4 4 3
16 14 14 13 12 12 11 11 11 10 10 9 10 9 9 9 9 9 9 9 9 9 8 7 6 6 7 6 3 4 5 4 3 3 3 3 4 4
13 13 13 13 12 12 11 11 10 10 9 9 9 9 9 9 9 9 9 9 9 9 8 7 6 6 6 5 3 3 4 5 4 4 3 3 3 4
13 12 12 12 12 11 11 10 10 10 10 10 10 10 9 9 9 9 9 11 10 9 8 7 5 5 4 4 4 4 3 4 4 4 3 3 3 3
13 12 12 12 11 11 11 10 10 10 10 10 10 9 9 9 10 10 9 9 8 8 8 6 4 4 4 5 5 5 4 2 3 4 6 5 3 2
13 12 12 12 11 11 10 11 12 11 10 10 10 9 9 9 8 9 9 9 8 8 7 6 5 4 4 5 5 5 5 4 3 3 3 4 6 6
Wind_Direction
255 258 260 263 261 262 263 265 274 290 295 297 296 291 293 294 298 298 297 296 296 295 294 292 292 291 290 289 288 287 285 283 281 280 278 277 275 274
255 259 262 264 264 261 259 261 260 268 280 287 291 292 295 293 294 295 294 295 292 291 291 291 291 290 289 288 287 286 285 283 281 279 278 277 275 274
256 259 263 266 267 266 264 263 264 266 274 284 288 292 293 293 294 293 294 294 292 291 290 291 291 290 289 288 287 286 286 285 283 283 281 279 278 277
262 263 265 267 265 267 266 266 268 269 275 285 290 293 293 295 293 292 293 291 290 291 291 291 291 290 289 288 287 286 286 285 285 284 284 282 280 279
263 264 267 268 269 270 270 271 273 275 276 282 288 292 292 291 292 291 291 290 290 291 291 290 290 289 289 288 287 285 286 285 285 285 284 282 280 279
262 262 264 265 268 273 275 275 276 278 278 279 284 287 288 290 290 291 292 291 292 293 291 290 288 288 287 286 286 286 287 286 285 284 283 281 279 279
264 263 262 262 266 269 271 273 274 274 276 278 282 286 288 290 289 291 291 294 291 291 290 290 291 290 292 290 287 285 286 285 284 283 281 279 278 278
267 268 268 266 265 267 269 271 273 275 277 278 281 282 285 288 290 289 291 292 292 291 290 290 291 289 288 285 284 285 284 283 282 280 279 279 277 277
270 272 272 270 271 272 274 275 275 273 272 274 277 279 284 287 289 288 285 284 285 289 291 286 286 286 287 284 285 283 283 283 282 281 281 280 278 277
270 271 273 275 274 275 277 276 275 274 273 272 272 276 279 282 281 281 282 284 283 279 275 281 286 287 289 288 288 286 286 286 285 283 281 280 280 280
271 270 271 274 276 278 279 278 279 278 276 274 274 277 279 282 284 286 286 286 286 286 283 280 287 293 293 290 289 291 291 293 293 291 287 286 286 285
274 272 269 271 277 280 280 281 281 283 285 285 283 281 281 283 285 280 280 281 285 289 287 284 288 297 294 289 295 300 298 294 291 291 293 295 294 288
278 277 276 277 279 280 281 280 280 285 288 288 286 283 280 278 277 274 267 268 276 277 285 291 285 285 282 289 294 292 291 294 293 290 288 291 291 288
278 279 279 282 283 283 283 280 284 289 287 286 285 283 282 282 282 280 274 268 265 271 278 280 277 280 283 286 288 290 291 291 289 290 292 294 289 284
278 280 283 285 287 286 282 283 285 283 281 281 281 283 285 285 285 282 277 269 265 264 266 266 266 269 270 276 281 286 291 289 285 287 292 292 292 291
281 282 284 283 279 276 279 280 274 272 274 276 279 283 285 284 281 279 281 283 283 280 264 260 264 265 268 272 275 278 280 281 286 290 294 294 291 286
287 285 283 281 277 273 274 274 271 270 272 271 275 280 282 282 280 279 277 280 280 285 287 278 267 265 265 269 272 272 271 271 274 280 284 286 284 285
288 283 282 281 280 282 283 280 274 270 271 272 273 277 280 280 281 280 276 276 278 282 284 286 285 282 268 250 240 263 266 271 274 272 273 281 287 291
283 279 278 279 280 280 280 278 276 273 273 271 271 274 277 277 277 279 279 277 278 279 281 280 277 276 282 285 237 231 269 280 276 272 269 278 290 307
275 275 276 277 279 280 279 277 276 275 271 268 268 270 272 274 274 276 277 277 281 283 282 275 266 266 274 288 294 280 264 271 275 276 280 284 289 294
278 277 278 278 277 277 277 276 275 274 272 271 269 268 268 269 270 272 275 277 277 279 280 280 279 274 270 265 262 262 263 255 269 274 281 281 285 287
277 277 278 277 276 276 276 274 274 272 271 269 268 265 265 266 267 270 271 274 275 276 280 281 276 258 244 248 260 272 278 276 259 256 262 269 283 303
277 278 277 275 275 274 272 271 272 271 269 268 266 265 264 264 266 268 268 268 270 273 275 273 267 254 247 248 257 264 267 267 263 253 252 244 250 261
Height
1512 1510 1508 1506 1504 1502 1500 1497 1495 1488 1483 1481 1478 1474 1471 1467 1463 1459 1455 1451 1447 1444 1441 1438 1435 1433 1431 1429 1427 1425 1424 1422 1421 1420 1420 1420 1419 1419
1507 1506 1504 1502 1499 1497 1494 1492 1489 1485 1478 1474 1472 1469 1465 1461 1457 1452 1448 1444 1440 1436 1433 1430 1427 1425 1423 1421 1419 1417 1415 1414 1413 1412 1411 1411 1411 1410
1503 1501 1499 1497 1494 1491 1489 1486 1483 1479 1473 1467 1466 1463 1459 1455 1450 1446 1441 1437 1433 1429 1426 1423 1420 1417 1415 1413 1411 1409 1407 1405 1404 1403 1402 1402 1401 1401
1498 1495 1493 1491 1488 1486 1483 1480 1477 1473 1468 1461 1458 1455 1452 1448 1443 1439 1435 1431 1427 1423 1419 1415 1412 1409 1407 1405 1402 1400 1399 1397 1396 1394 1393 1393 1392 1392
1492 1490 1487 1485 1482 1480 1476 1473 1470 1466 1462 1456 1451 1448 1444 1441 1437 1432 1428 1424 1420 1416 1412 1409 1405 1402 1399 1396 1394 1392 1390 1389 1387 1386 1385 1384 1384 1383
1486 1483 1481 1478 1475 1473 1469 1466 1463 1459 1455 1451 1445 1441 1438 1435 1431 1426 1421 1418 1414 1410 1406 1402 1398 1394 1391 1388 1386 1384 1382 1380 1378 1377 1376 1376 1375 1375
1478 1476 1473 1471 1468 1465 1462 1458 1456 1452 1448 1444 1439 1435 1431 1428 1425 1421 1416 1411 1407 1404 1399 1396 1392 1388 1385 1381 1379 1376 1374 1372 1370 1369 1368 1368 1367 1367
1471 1468 1466 1463 1460 1457 1454 1451 1448 1445 1441 1437 1433 1429 1425 1422 1418 1415 1410 1405 1399 1398 1394 1389 1387 1382 1378 1375 1372 1369 1367 1365 1363 1362 1361 1360 1360 1360
1464 1461 1457 1454 1451 1448 1445 1442 1439 1436 1434 1431 1425 1421 1418 1415 1412 1407 1403 1399 1394 1390 1388 1381 1379 1375 1371 1368 1365 1363 1360 1358 1356 1355 1354 1353 1353 1353
1456 1453 1449 1446 1443 1440 1436 1432 1429 1427 1425 1422 1418 1413 1410 1407 1404 1400 1396 1391 1386 1383 1381 1375 1372 1369 1365 1362 1359 1356 1354 1351 1350 1348 1347 1346 1346 1346
1447 1444 1441 1438 1435 1432 1428 1424 1420 1417 1416 1413 1409 1406 1402 1399 1397 1393 1388 1384 1379 1376 1375 1371 1366 1363 1359 1356 1353 1351 1348 1346 1344 1342 1341 1341 1340 1340
1438 1435 1432 1429 1426 1424 1421 1417 1412 1409 1407 1403 1400 1397 1393 1390 1388 1385 1381 1377 1373 1369 1368 1366 1361 1358 1353 1351 1349 1347 1344 1342 1340 1338 1337 1336 1335 1335
1429 1426 1423 1421 1418 1415 1412 1409 1405 1402 1398 1395 1391 1387 1384 1382 1379 1376 1373 1371 1367 1363 1362 1360 1356 1354 1351 1347 1344 1342 1340 1338 1336 1334 1333 1332 1331 1331
1420 1417 1414 1412 1409 1406 1403 1400 1397 1394 1390 1386 1383 1380 1377 1374 1371 1368 1365 1363 1360 1357 1355 1354 1351 1349 1346 1343 1340 1338 1336 1334 1333 1331 1330 1328 1328 1327
1412 1409 1406 1403 1400 1397 1394 1391 1389 1386 1382 1379 1375 1372 1369 1366 1363 1360 1358 1355 1352 1350 1348 1347 1345 1343 1341 1339 1336 1334 1333 1331 1330 1328 1327 1326 1325 1325
1404 1400 1397 1393 1390 1387 1384 1382 1379 1377 1374 1371 1368 1365 1362 1359 1357 1354 1352 1349 1347 1344 1343 1341 1339 1338 1336 1334 1333 1330 1329 1328 1327 1326 1325 1324 1323 1322
1396 1391 1388 1385 1381 1378 1376 1373 1371 1369 1366 1364 1361 1358 1356 1353 1351 1349 1347 1344 1342 1339 1337 1336 1334 1333 1331 1330 1328 1327 1326 1325 1324 1323 1323 1322 1321 1321
1387 1382 1379 1376 1373 1371 1368 1366 1363 1361 1359 1357 1354 1352 1349 1347 1345 1343 1341 1339 1337 1335 1333 1331 1330 1328 1327 1325 1324 1323 1323 1322 1322 1321 1320 1320 1320 1320
1378 1373 1370 1368 1365 1362 1360 1358 1355 1353 1351 1349 1347 1345 1343 1341 1340 1338 1336 1334 1332 1331 1329 1328 1326 1325 1324 1323 1321 1321 1320 1320 1319 1319 1319 1319 1318 1318
1368 1364 1361 1359 1356 1354 1352 1350 1347 1346 1344 1342 1340 1339 1337 1336 1334 1333 1331 1330 1328 1326 1325 1323 1322 1322 1321 1320 1319 1318 1318 1317 1317 1317 1317 1317 1316 1316
1359 1356 1353 1350 1348 1346 1344 1342 1340 1338 1337 1335 1334 1332 1331 1330 1328 1327 1326 1325 1323 1322 1320 1319 1318 1318 1317 1317 1316 1315 1315 1315 1315 1315 1315 1315 1315 1315
1350 1347 1345 1342 1340 1338 1336 1334 1332 1331 1329 1328 1327 1325 1324 1324 1323 1322 1321 1320 1319 1317 1316 1315 1314 1314 1314 1313 1313 1312 1312 1312 1312 1312 1313 1314 1314 1314
1341 1339 1336 1334 1332 1330 1328 1326 1325 1323 1322 1321 1320 1319 1318 1318 1317 1316 1316 1315 1314 1313 1312 1311 1311 1310 1310 1310 1310 1310 1310 1310 1310 1310 1311 1311 1312 1312